Parsons, KS

9:14 AM CDT on September 20, 2017 (GMT -0500)
Tri-City

Weather History for KPPF - May, 2014

Change the Weather History Date:

Tuesday, May 6, 2014

  Actual Average Record
Temperature  
Mean Temperature 76 °F -  
Max Temperature 86 °F 74 °F 92 °F (1952)
Min Temperature 66 °F 53 °F 37 °F (1991)
Cooling Degree Days 11    
Growing Degree Days 26 (Base 50)    
Moisture  
Dew Point 60 °F    
Average Humidity 54    
Maximum Humidity 65    
Minimum Humidity 41    
Precipitation  
Precipitation 0.00 in - - ()
Sea Level Pressure  
Sea Level Pressure 29.61 in    
Wind  
Wind Speed 12 mph (South)    
Max Wind Speed 17 mph    
Max Gust Speed 28 mph    
Visibility 10 miles    
Events      
Averages and records for this station are not official NWS values.
T = Trace of Precipitation, MM = Missing Value Source: NWS Daily Summary

Daily Weather History Graph

Daily Weather History Graph

Search for Another Location

Airport or City:

Trip Planner

Search our weather history database for the weather conditions in past years. The results will help you decide how hot, cold, wet, or windy it might be!

Date:

Astronomy

May. 06, 2014 Rise Set
Actual Time 6:21 AM CDT 8:16 PM CDT
Civil Twilight 5:53 AM CDT 8:44 PM CDT
Nautical Twilight 5:18 AM CDT 9:19 PM CDT
Astronomical Twilight 4:41 AM CDT 9:56 PM CDT
Moon 12:37 PM CDT (5/6) 1:37 AM CDT (5/6)
Length of Visible Light 14h 51m
Length of Day
13h 54m
Waxing Crescent, 46% of the Moon is Illuminated
May 6
Waxing Crescent
May 6
First Quarter
May 14
Full
May 21
Last Quarter
May 28
New

Hourly Weather History & Observations

Time (CDT) Temp. Heat Index Dew Point Humidity Pressure Visibility Wind Dir Wind Speed Gust Speed Precip Events Conditions
1:52 AM 71.1 °F - 57.9 °F 63% 29.69 in 10.0 mi South 9.2 mph - N/A   Clear
2:52 AM 70.0 °F - 57.0 °F 63% 29.66 in 10.0 mi South 8.1 mph - N/A   Clear
6:52 AM 66.0 °F - 54.0 °F 65% 29.64 in 10.0 mi SSE 8.1 mph - N/A   Clear
7:52 AM 68.0 °F - 55.9 °F 65% 29.63 in 10.0 mi South 10.4 mph - N/A   Clear
9:52 AM 73.9 °F - 57.9 °F 57% 29.63 in 10.0 mi South 16.1 mph 26.5 mph N/A   Clear
10:52 AM 77.0 °F - 59.0 °F 54% 29.63 in 10.0 mi South 17.3 mph 23.0 mph N/A   Clear
11:52 AM 80.1 °F 80.7 °F 59.0 °F 48% 29.62 in 10.0 mi South 16.1 mph 23.0 mph N/A   Clear
12:52 PM 82.0 °F 82.4 °F 60.1 °F 47% 29.62 in 10.0 mi South 16.1 mph 23.0 mph N/A   Clear
1:52 PM 82.9 °F 82.8 °F 59.0 °F 44% 29.60 in 10.0 mi South 17.3 mph 26.5 mph N/A   Clear
2:52 PM 86.0 °F 85.7 °F 60.1 °F 41% 29.59 in 10.0 mi South 16.1 mph 27.6 mph N/A   Clear
3:52 PM 84.0 °F 84.4 °F 61.0 °F 46% 29.57 in 10.0 mi South 13.8 mph 26.5 mph N/A   Clear
4:52 PM 84.9 °F 85.0 °F 61.0 °F 44% 29.56 in 10.0 mi South 15.0 mph 27.6 mph N/A   Clear
5:52 PM 84.9 °F 85.4 °F 62.1 °F 46% 29.54 in 10.0 mi South 9.2 mph 19.6 mph N/A   Clear
6:52 PM 84.0 °F 84.9 °F 63.0 °F 49% 29.56 in 10.0 mi South 15.0 mph 25.3 mph N/A   Clear
7:52 PM 81.0 °F 82.2 °F 63.0 °F 54% 29.58 in 10.0 mi South 13.8 mph - N/A   Clear
8:52 PM 79.0 °F - 62.1 °F 56% 29.59 in 10.0 mi North - - N/A   Clear
9:52 PM 78.1 °F - 62.1 °F 58% 29.60 in 10.0 mi South 12.7 mph 23.0 mph N/A   Clear
10:52 PM 75.9 °F - 63.0 °F 64% 29.62 in 10.0 mi South 12.7 mph 21.9 mph N/A   Clear
11:52 PM 75.9 °F - 63.0 °F 64% 29.63 in 10.0 mi North - - N/A   Clear